McComb, MS

11:51 AM CDT on March 27, 2017 (GMT -0500)
McComb-Pike County-Lewis

Weather History for KMCB - November, 2012

Change the Weather History Date:

Friday, November 16, 2012

  Actual Average Record
Temperature  
Mean Temperature 54 °F -  
Max Temperature 64 °F 69 °F 83 °F (1957)
Min Temperature 43 °F 45 °F 30 °F (1970)
Degree Days  
Heating Degree Days 12    
Growing Degree Days 4 (Base 50)    
Moisture  
Dew Point 38 °F    
Average Humidity 61    
Maximum Humidity 86    
Minimum Humidity 33    
Precipitation  
Precipitation 0.00 in - - ()
Sea Level Pressure  
Sea Level Pressure 30.28 in    
Wind  
Wind Speed 6 mph (North)    
Max Wind Speed 8 mph    
Max Gust Speed -    
Visibility 10 miles    
Events      
Averages and records for this station are not official NWS values.
T = Trace of Precipitation, MM = Missing Value Source: NWS Daily Summary

Daily Weather History Graph

Daily Weather History Graph

Search for Another Location

Airport or City:

Trip Planner

Search our weather history database for the weather conditions in past years. The results will help you decide how hot, cold, wet, or windy it might be!

Date:

Astronomy

Nov. 16, 2012 Rise Set
Actual Time 6:30 AM CST 5:02 PM CST
Civil Twilight 6:04 AM CST 5:28 PM CST
Nautical Twilight 5:35 AM CST 5:57 PM CST
Astronomical Twilight 5:06 AM CST 6:26 PM CST
Moon 9:21 AM CST (11/16) 8:04 PM CST (11/16)
Length of Visible Light 11h 23m
Length of Day
10h 32m
Waxing Crescent, 12% of the Moon is Illuminated
Nov 16
Waxing Crescent
Nov 20
First Quarter
Nov 28
Full
Dec 6
Last Quarter
Dec 13
New

Hourly Weather History & Observations

Time (CST) Temp. Windchill Dew Point Humidity Pressure Visibility Wind Dir Wind Speed Gust Speed Precip Events Conditions
12:53 AM 46.9 °F - 42.1 °F 83% 30.26 in 10.0 mi North 5.8 mph - N/A   Clear
1:53 AM 46.0 °F 43.1 °F 41.0 °F 83% 30.25 in 10.0 mi North 5.8 mph - N/A   Clear
2:53 AM 46.0 °F 42.5 °F 41.0 °F 83% 30.26 in 10.0 mi North 6.9 mph - N/A   Clear
3:53 AM 45.0 °F 42.6 °F 41.0 °F 86% 30.26 in 10.0 mi North 4.6 mph - N/A   Clear
4:53 AM 45.0 °F 41.8 °F 39.9 °F 82% 30.27 in 10.0 mi North 5.8 mph - N/A   Clear
5:53 AM 44.1 °F 40.1 °F 39.0 °F 82% 30.28 in 10.0 mi North 6.9 mph - N/A   Clear
6:53 AM 43.0 °F 39.5 °F 39.0 °F 86% 30.30 in 10.0 mi North 5.8 mph - N/A   Clear
7:53 AM 46.0 °F 42.5 °F 37.9 °F 73% 30.31 in 10.0 mi NNE 6.9 mph - N/A   Clear
8:53 AM 51.1 °F - 39.0 °F 63% 30.32 in 10.0 mi North 6.9 mph - N/A   Clear
9:53 AM 55.9 °F - 37.9 °F 51% 30.32 in 10.0 mi NNE 6.9 mph - N/A   Clear
10:53 AM 59.0 °F - 36.0 °F 42% 30.31 in 10.0 mi Variable 5.8 mph - N/A   Clear
11:53 AM 62.1 °F - 35.1 °F 37% 30.28 in 10.0 mi Variable 3.5 mph - N/A   Clear
12:53 PM 63.0 °F - 35.1 °F 35% 30.26 in 10.0 mi Variable 5.8 mph - N/A   Clear
1:53 PM 64.0 °F - 34.0 °F 33% 30.25 in 10.0 mi North 8.1 mph - N/A   Clear
2:53 PM 64.9 °F - 35.1 °F 33% 30.24 in 10.0 mi North 8.1 mph - N/A   Clear
3:53 PM 64.0 °F - 34.0 °F 33% 30.24 in 10.0 mi North 6.9 mph - N/A   Clear
4:53 PM 60.1 °F - 35.1 °F 39% 30.25 in 10.0 mi North 4.6 mph - N/A   Clear
5:53 PM 52.0 °F - 39.0 °F 61% 30.27 in 10.0 mi North 3.5 mph - N/A   Clear
6:53 PM 50.0 °F - 37.9 °F 63% 30.28 in 10.0 mi North 4.6 mph - N/A   Clear
7:53 PM 50.0 °F - 37.0 °F 61% 30.30 in 10.0 mi North 5.8 mph - N/A   Clear
8:53 PM 48.0 °F - 37.0 °F 66% 30.30 in 10.0 mi North 5.8 mph - N/A   Clear
9:53 PM 48.0 °F - 37.0 °F 66% 30.31 in 10.0 mi North 5.8 mph - N/A   Clear
10:53 PM 48.0 °F - 36.0 °F 63% 30.32 in 10.0 mi North 5.8 mph - N/A   Clear
11:53 PM 46.0 °F 43.9 °F 36.0 °F 68% 30.31 in 10.0 mi North 4.6 mph - N/A   Clear